UFO 2 (USA 95) (22787 NORAD) Tracking and Keplerian Element Data

This shows tracking and keplerian element data for the satellite.

Feedback or suggestion? Click here.




ElementValue
Catalog22787
NameUFO 2 (USA 95)
Epoch Orbit11355
Epoch Day34.69582206
Epoch Year2025
RAAN6.1885
Inclination11.7266
Eccentricity0.0003076
Argument of Perigee322.0136
Mean Anonmoly85.0355
Mean Motion1.00271719
Decay Rate1.27E-06
L11 22787U 93056A 25034.69582206 .00000127 00000+0 00000+0 0 9999
L22 22787 11.7266 6.1885 0003076 322.0136 85.0355 1.00271719113551



Live tracking and technical data element details for UFO 2 (USA 95) (NORAD 22787). UFO 2 (USA 95) can be tracked NOW for your location showing map with azimuth and elevation plus other details from your city location.







IsCatalogInMostPopularTable: catalog: 22787, numindb: 283
Update: records affected: 1



GetName: 22787 UFO 2 (USA 95)

Hit Count: updated at: Fri, 16 May 2025 12:01:59 GMT